Tracking 18980 objects as of 20-Feb-2018
HD Live streaming from Space Station
objects crossing your sky now

EXPLORER 11

Track EXPLORER 11 now!
10-day predictions
EXPLORER 11 is classified as:


NORAD ID: 107
Int'l Code: 1961-013A
Perigee: 474.3 km
Apogee: 1,268.9 km
Inclination: 28.8 °
Period: 102.2 minutes
Semi major axis: 7242 km
RCS: 0.4708 m2 (medium)
Launch date: April 27, 1961
Source: United States (US)
Launch site: AIR FORCE EASTERN TEST RANGE (AFETR)
aabbcc
Your satellite tracking list
Your tracking list is empty




NASA's NSSDC Master Catalog

Two Line Element Set (TLE):
1   107U 61013A   18050.86733343 +.00000342 +00000-0 +23206-4 0  9996
2   107 028.7912 292.4647 0548567 259.1732 094.6656 14.08523930846466
Source of the keplerian elements: AFSPC